Theta_e
304 303 303 303 303 303 303 303 303 303 303 303 303 303 303 302 299 302 301 301 301 297 293 293 294 295 296 300 301 304 305 305 302 303 303 302 300 301 301 302 303 303 303 304 297
304 303 302 302 302 303 303 303 302 303 303 303 303 303 302 301 296 298 299 300 299 296 293 294 294 294 292 295 295 302 304 303 302 299 298 296 296 296 297 298 298 298 299 298 298
303 303 302 302 302 302 302 302 302 302 302 303 302 302 302 298 297 296 297 297 297 294 293 292 294 294 294 295 296 296 296 294 295 295 296 295 293 293 294 295 296 296 296 297 297
302 304 302 301 302 302 302 302 302 302 301 301 301 301 301 294 292 295 296 294 294 292 292 292 292 293 294 294 294 294 293 293 294 293 294 293 292 292 292 291 292 293 294 295 295
301 301 301 301 301 302 302 302 302 301 299 300 300 300 295 292 292 294 293 291 292 292 292 292 292 293 293 293 293 292 292 291 292 292 292 292 291 291 291 291 292 292 292 292 293
301 301 301 301 301 301 301 301 301 298 298 299 299 298 294 292 293 293 291 291 291 292 292 292 292 293 292 292 292 292 292 291 292 291 291 291 291 291 292 292 292 292 291 291 292
301 301 301 301 301 300 301 301 298 297 297 298 298 298 294 292 294 292 292 291 291 291 291 292 292 292 292 292 291 292 291 292 291 291 291 291 292 292 292 292 292 291 291 291 292
301 301 300 300 300 300 300 298 296 295 297 297 297 297 294 293 293 292 292 291 291 291 291 292 291 291 291 291 291 292 291 292 292 291 291 291 293 292 292 292 292 292 292 292 292
301 300 300 300 300 300 299 293 295 292 294 294 294 293 291 293 291 291 291 291 291 291 292 292 292 291 291 292 290 291 293 292 292 292 292 291 293 293 293 293 293 293 293 292 292
300 300 300 300 300 299 297 291 291 292 292 293 291 290 291 290 291 291 291 291 290 290 291 292 291 291 290 290 290 291 292 292 292 291 292 292 293 293 293 294 294 294 294 293 293
300 300 300 300 300 298 293 290 290 289 290 290 290 291 290 291 291 291 291 290 291 291 291 291 291 291 290 291 292 291 292 292 292 292 292 292 293 293 293 292 293 293 294 294 293
301 300 300 300 300 296 293 292 292 289 292 290 290 291 291 291 291 289 290 291 291 290 290 288 290 290 290 291 292 293 294 293 292 292 293 293 292 291 291 292 292 292 292 293 292
301 301 300 300 298 295 293 292 291 293 289 290 290 291 291 290 289 289 290 291 290 290 290 286 288 290 291 292 293 293 294 293 292 293 291 291 292 292 291 290 289 289 290 290 291
300 301 300 300 296 295 293 293 292 291 283 293 289 291 290 289 288 290 290 290 290 287 290 286 289 292 292 292 292 293 292 292 293 291 290 292 292 291 291 290 289 289 288 288 288
301 300 301 300 297 294 294 293 293 289 291 290 289 290 289 289 289 290 290 290 289 288 285 287 289 290 289 291 292 290 291 291 291 290 290 290 292 290 289 290 289 289 288 288 288
301 301 301 300 297 295 294 292 291 288 289 291 289 289 290 289 290 290 289 288 288 286 287 289 290 288 290 291 291 290 287 288 282 283 287 289 293 291 291 290 288 287 287 287 287
301 301 301 300 297 295 294 290 291 291 292 293 290 290 290 290 291 288 285 282 283 282 279 288 289 291 291 284 283 281 280 279 281 279 284 290 290 291 289 288 287 286 286 285 285
301 300 300 299 297 294 291 289 289 292 291 290 290 290 291 291 290 285 282 282 283 277 287 282 285 287 291 288 285 280 281 285 289 282 290 291 286 291 288 287 286 285 285 284 284
299 300 299 298 294 293 289 290 294 292 292 290 291 289 288 289 289 285 279 281 284 280 285 276 284 289 290 290 286 281 287 288 292 273 281 286 288 289 289 287 286 284 284 283 283
298 297 297 296 293 290 291 296 292 291 291 290 292 292 291 286 288 287 284 285 286 286 284 282 284 288 290 286 286 288 290 289 286 287 284 285 286 288 286 286 284 283 283 283 283
297 296 294 293 292 290 293 287 289 291 291 291 291 292 291 288 287 287 288 287 288 289 287 277 282 283 285 278 280 282 287 293 294 289 289 288 286 281 284 285 283 283 282 282 282
296 297 293 291 293 290 286 287 291 292 291 291 292 292 291 286 289 286 287 288 289 289 289 286 278 279 281 284 281 283 288 294 292 287 288 291 289 281 284 284 284 282 282 282 282
295 296 291 291 296 286 289 292 292 293 294 290 292 292 288 290 289 286 289 288 289 290 288 285 282 282 282 281 281 283 285 291 292 291 289 290 287 282 283 284 282 282 281 281 281
295 295 291 291 292 292 293 293 293 292 291 293 292 292 292 289 286 287 289 289 289 289 291 289 287 285 284 281 276 286 285 287 289 288 285 288 286 286 285 283 281 281 280 280 280
293 290 286 290 290 290 291 293 293 292 293 291 291 293 293 291 291 288 289 288 289 290 291 290 290 277 283 281 277 284 284 285 286 288 289 285 284 287 282 281 281 281 280 279 279
291 291 285 292 292 293 292 291 291 292 291 292 292 290 290 292 292 291 290 290 291 287 289 286 288 278 279 280 268 276 280 283 285 287 288 286 286 281 279 280 280 280 279 278 278
291 291 291 291 290 290 290 290 290 290 291 291 291 291 290 288 289 290 290 289 291 290 288 287 288 284 279 276 275 281 279 281 281 281 285 286 285 282 280 279 279 279 278 277 276
Wind_Speed
19 21 23 24 24 24 24 22 23 22 23 22 22 21 20 17 14 2 3 5 5 8 11 13 13 13 4 1 1 1 3 11 7 6 15 11 10 5 7 15 6 7 15 17 28
18 21 22 23 23 23 23 23 23 23 22 22 22 21 18 17 11 1 4 4 3 6 13 9 5 7 3 1 1 4 5 8 5 5 10 18 12 14 11 20 21 19 20 28 36
22 20 21 23 23 24 23 23 23 23 23 22 21 19 15 16 3 2 4 6 6 10 11 6 3 1 2 0 2 3 6 4 16 9 11 19 23 9 14 26 15 21 23 23 28
24 24 25 26 26 26 25 25 24 23 22 22 20 13 10 6 5 2 4 7 7 10 9 5 4 3 1 2 2 4 8 6 12 12 14 17 18 19 19 25 17 20 20 24 23
24 24 25 27 29 30 29 29 27 25 26 19 13 6 5 2 5 2 6 11 10 9 4 3 4 2 4 3 4 5 12 12 15 16 14 15 21 25 25 24 22 19 21 23 23
24 25 26 28 30 31 31 31 27 28 23 16 7 5 2 2 3 2 7 15 11 7 2 2 1 3 5 5 6 5 5 14 15 22 14 20 23 21 29 28 26 23 23 22 24
23 26 27 29 31 32 34 29 29 28 17 11 13 6 2 7 2 7 13 19 13 8 2 5 5 5 3 5 9 7 11 15 21 22 14 6 13 19 29 29 23 21 17 19 22
23 25 26 29 32 34 33 31 35 19 12 11 2 7 4 3 7 10 16 18 10 11 11 13 7 5 5 4 6 8 5 10 13 10 8 10 17 22 27 19 23 24 21 20 24
23 24 25 27 30 35 29 34 21 11 13 1 1 3 5 3 4 12 14 8 15 7 6 7 3 4 3 2 4 5 6 10 15 15 5 5 14 27 26 18 22 24 23 21 22
24 23 25 27 30 31 26 32 18 4 5 2 3 1 4 3 6 19 8 7 2 4 4 2 2 2 1 3 7 11 8 14 18 10 11 19 24 29 25 17 23 23 23 22 23
24 25 26 28 32 20 26 9 9 5 10 2 7 5 5 8 11 6 17 2 1 3 1 2 1 10 13 17 16 12 14 17 22 25 17 20 20 31 28 18 22 21 20 21 22
22 25 26 28 30 12 15 6 3 5 9 7 7 7 13 5 5 6 2 0 2 5 3 3 9 17 8 9 14 14 18 22 24 15 9 22 26 32 25 19 12 10 10 13 14
23 23 26 28 22 16 7 5 12 2 3 7 5 4 4 5 4 5 4 2 5 4 6 8 10 7 12 12 14 17 15 19 20 23 10 14 14 17 4 5 8 10 11 13 13
23 24 24 26 7 21 4 13 11 5 4 4 3 4 3 3 5 6 5 5 2 5 3 7 5 7 11 10 12 14 7 15 16 11 11 6 12 12 3 3 11 13 13 16 17
22 24 23 21 13 8 7 17 1 1 5 2 3 1 1 4 4 1 1 3 6 8 6 10 7 7 7 10 3 11 13 13 17 16 13 4 6 5 6 5 15 16 16 16 17
25 24 23 18 17 8 9 7 1 5 6 4 2 2 3 2 3 5 3 5 2 2 3 17 3 4 6 6 3 10 6 14 3 1 3 7 6 16 2 7 12 13 15 17 18
30 27 23 22 7 12 10 2 4 3 3 4 4 1 0 4 4 2 3 4 2 5 4 4 4 4 4 6 6 7 6 4 5 4 5 7 12 11 1 5 9 15 16 17 17
26 27 27 22 15 6 2 4 3 4 7 3 2 2 4 1 4 3 4 5 0 5 3 1 9 3 3 6 6 3 6 3 6 3 17 10 6 4 5 4 11 13 16 17 17
29 21 19 11 4 7 4 1 6 6 2 3 4 2 4 4 3 3 3 4 4 8 7 2 7 4 11 7 8 5 2 4 5 1 3 4 6 6 11 16 18 17 17 17 17
24 11 9 3 8 4 3 8 6 4 1 2 4 5 6 3 2 1 2 4 4 9 2 4 7 5 2 4 3 5 2 4 1 5 6 5 5 4 13 15 16 15 16 17 17
10 4 2 7 6 2 4 8 5 5 4 6 7 8 9 4 5 4 6 3 5 2 4 4 3 7 4 2 6 4 4 5 3 2 3 5 5 5 7 10 13 14 16 16 16
4 4 4 11 1 2 2 6 5 5 7 8 5 10 6 6 6 6 8 7 5 5 4 5 4 5 11 9 5 5 5 2 2 6 4 4 8 4 5 6 10 13 15 15 14
5 5 7 5 4 4 5 8 5 13 6 4 5 8 6 6 6 9 7 6 10 7 4 4 3 4 11 5 4 2 4 5 7 3 8 4 6 3 3 8 10 12 13 14 16
3 4 0 2 2 5 12 18 10 4 7 6 5 12 15 7 8 7 11 5 7 11 20 8 7 8 9 10 2 11 16 15 8 4 3 7 10 12 12 10 12 12 12 12 13
2 4 4 6 7 10 10 16 20 23 8 5 20 12 14 13 17 10 12 8 10 16 7 3 10 4 8 10 5 17 20 21 11 12 7 5 5 14 6 6 9 9 11 12 14
3 3 2 8 13 11 16 21 24 15 20 19 8 22 19 15 13 19 14 18 13 2 6 5 4 3 4 7 1 6 11 11 12 11 11 8 11 3 3 3 7 10 10 11 13
5 7 4 8 9 12 14 18 25 23 9 16 20 17 19 21 13 14 13 17 19 8 9 5 4 2 5 3 6 7 6 4 2 3 4 3 5 2 3 3 3 7 9 9 11
Wind_Direction
3 360 359 356 354 352 347 344 341 339 335 332 331 332 333 335 335 124 57 3 19 22 13 8 13 4 12 2 251 200 244 250 252 242 262 335 352 349 312 286 307 308 301 315 340
7 358 357 353 350 347 344 341 338 335 332 327 329 329 330 332 326 291 12 20 48 14 11 18 6 340 23 341 303 176 222 247 228 352 311 305 301 312 312 302 286 298 296 315 322
354 355 352 351 348 347 343 339 336 331 328 326 321 318 321 327 311 191 26 12 357 356 357 347 27 85 112 127 256 281 245 359 283 302 300 300 301 297 285 277 292 296 298 299 303
354 355 352 350 347 346 343 338 335 332 329 325 322 315 314 327 307 133 5 2 351 344 6 359 6 58 61 236 244 279 255 268 289 284 286 285 299 286 283 279 287 279 284 287 281
357 352 350 348 347 344 339 337 334 331 328 323 338 340 334 11 251 192 339 340 336 340 9 35 36 46 345 306 338 262 275 294 286 289 280 280 272 275 283 283 281 270 271 275 277
354 351 348 346 344 341 337 334 332 331 328 324 319 314 45 260 162 320 334 347 331 324 285 155 156 186 257 237 199 239 255 257 272 277 278 270 277 281 281 276 268 266 264 265 266
350 348 347 345 343 340 336 333 333 327 319 323 295 236 115 232 241 276 322 332 320 309 249 233 221 170 185 282 251 275 279 275 270 268 261 261 257 251 255 266 276 273 263 264 266
348 347 348 344 342 339 334 332 332 330 334 326 357 176 249 261 280 282 314 317 320 311 287 299 271 203 182 276 307 272 242 266 256 232 234 167 264 269 265 273 279 276 273 263 260
345 346 346 345 341 336 330 334 327 329 337 150 102 132 266 254 263 303 312 293 310 313 308 278 130 203 128 210 313 219 257 227 281 285 230 180 287 274 277 281 278 271 271 268 264
344 341 341 342 343 339 335 335 323 344 31 148 30 340 278 255 303 308 305 310 302 329 6 88 65 267 253 135 235 256 259 274 276 269 321 279 276 273 274 274 269 273 271 268 265
341 342 340 342 343 344 346 354 8 351 28 240 279 270 269 297 302 268 304 332 66 46 240 2 255 239 236 216 237 264 269 267 281 285 293 286 283 282 291 294 277 272 268 269 267
339 340 343 342 342 339 5 63 141 280 308 259 245 250 272 269 295 274 236 238 189 246 149 342 232 252 249 239 248 259 268 283 287 285 309 295 285 284 294 280 310 332 346 334 313
337 336 341 342 338 345 23 48 344 250 271 289 232 251 255 165 271 288 170 168 220 249 205 201 248 312 276 275 282 271 277 282 277 301 278 281 283 300 311 58 359 2 340 330 326
337 336 340 341 352 336 330 342 338 143 49 253 258 268 183 316 279 227 223 187 240 248 260 241 278 262 287 268 275 281 243 275 287 313 296 53 289 310 283 326 353 344 338 330 325
336 333 334 334 317 315 311 333 98 183 351 182 222 212 256 207 315 301 183 150 217 236 94 254 274 286 276 259 243 248 304 281 270 267 294 299 227 274 24 336 344 328 324 323 321
332 331 330 325 319 298 323 337 247 33 259 308 243 217 342 206 235 303 335 18 36 300 261 256 285 223 230 284 261 307 321 294 352 156 237 248 202 299 313 325 315 317 320 319 322
331 327 320 308 290 298 314 37 7 146 346 271 273 195 227 264 293 56 328 309 186 2 318 307 240 260 202 356 346 40 27 325 346 355 238 300 300 264 13 335 326 319 322 327 326
331 326 318 303 291 259 322 42 150 241 233 23 323 290 247 243 245 308 301 295 124 98 302 228 316 219 162 162 223 234 157 187 291 281 295 288 244 262 181 11 342 333 328 330 329
333 318 295 293 224 180 83 54 224 222 310 309 316 328 296 246 247 342 207 241 241 183 180 148 267 250 286 289 137 272 228 222 278 75 359 267 290 123 344 348 343 339 338 333 331
328 306 281 227 175 133 98 249 233 221 30 102 185 180 265 273 280 187 260 212 254 201 175 268 303 250 305 9 294 183 293 318 318 312 300 279 283 260 334 328 333 333 337 334 334
317 313 263 161 150 71 227 232 272 251 205 194 228 268 240 240 211 223 242 267 211 211 147 152 161 278 28 218 203 342 297 227 258 209 269 307 269 215 280 323 325 335 340 336 336
309 297 184 154 241 220 217 212 238 258 220 260 263 260 241 193 224 236 234 221 159 142 224 208 187 273 243 270 202 197 234 252 256 289 236 271 279 227 271 314 338 340 340 341 341
298 267 180 162 252 253 257 268 251 279 251 255 248 219 209 237 244 202 252 252 219 187 233 187 234 320 322 350 10 127 253 246 275 297 256 264 265 217 339 355 349 344 342 342 347
301 308 265 212 295 288 298 292 275 203 271 266 251 256 269 232 231 262 250 245 201 231 233 189 198 192 244 245 169 297 287 279 274 247 254 236 292 309 340 345 346 343 344 344 349
261 255 195 285 283 255 262 283 292 303 262 202 290 256 277 286 273 244 261 263 245 236 224 234 261 198 251 270 260 275 276 282 267 240 235 268 264 309 311 326 331 331 346 355 355
271 327 346 278 282 297 299 290 289 300 301 288 280 296 292 289 299 287 282 285 279 174 200 190 246 151 271 272 24 260 253 253 253 252 245 272 288 208 263 317 351 345 354 0 355
266 273 264 282 295 290 288 295 298 295 270 286 296 302 302 295 297 296 288 279 267 223 204 195 196 159 258 244 324 323 236 199 247 236 178 230 233 183 292 352 347 345 352 355 354